Weather Roundup
Issued by NWS Springfield, MO

Home | Current Version | Previous Version | Text Only | Print | Product List | Glossary On
Versions: 1 2 3 4 5 6 7 8 9 10 11 12 13 14 15 16 17 18 19 20 21 22 23 24 25 26 27 28 29 30 31 32 33 34 35 36 37 38 39 40 41 42 43 44 45 46 47 48 49 50
000
NZUS99 KSGF 232307
HRRSGF

HOURLY WEATHER
NATIONAL WEATHER SERVICE SPRINGFIELD MO
600 PM CDT SAT SEP 23 2017

......SGF CWA......

CITY           SKY/WX    TMP DP  RH WIND       PRES   REMARKS
SPRINGFIELD    MOSUNNY   87  63  44 S9        29.97S
JOPLIN         SUNNY     87  63  44 S7        29.96S
WEST PLAINS    SUNNY     89  61  38 E6        30.01S
ROLLA          MOSUNNY   89  61  38 E5        30.00S
OSAGE BEACH    SUNNY     87  68  52 NE6       29.98S HX  90
BRANSON        MOSUNNY   90  61  37 SE9       29.99S

......SURROUNDING SGF CWA......

CITY           SKY/WX    TMP DP  RH WIND       PRES   REMARKS
CHANUTE        SUNNY     87  67  51 SE9       29.95S HX  90
PARSONS        MOSUNNY   86  65  49 SE3       29.95S
COFFEYVILLE    SUNNY     89  66  46 S9        29.92S HX  91
EMPORIA        SUNNY     86  62  44 S15       29.93R
GROVE OK       SUNNY     90  61  37 CALM      29.95S
ROGERS AR      SUNNY     87  63  44 E6        29.98S
SILOAM SPRINGS MOSUNNY   87  64  46 MISG        N/A
HARRISON AR    SUNNY     89  59  36 E7        29.98S
NEAR YELLVILLE SUNNY     90  64  42 VRB3      29.96S HX  91

......KANSAS AND MISSOURI......

CITY           SKY/WX    TMP DP  RH WIND       PRES   REMARKS
KANSAS CTY INT MOSUNNY   85  69  58 S10       29.95S
DOWNTOWN KC    SUNNY     89  67  47 S12       29.94R HX  92
COLUMBIA       SUNNY     88  66  48 SE5       29.98S HX  90
SEDALIA        SUNNY     89  66  46 S6        29.98S HX  91
ST JOSEPH      MOSUNNY   89  67  47 S14       29.93R HX  92
ST LOUIS       MOSUNNY   90  61  37 E8        29.99S HX  90
SPIRIT OF STL  SUNNY     88  67  49 E5        29.97S HX  91
KIRKSVILLE     SUNNY     89  62  40 SE10      29.98F
WICHITA        MOSUNNY   88  63  43 S21       29.89S
TOPEKA         SUNNY     88  66  48 SE15      29.93R HX  90
OLATHE         MOSUNNY   84  68  58 S9        29.96S

......TENNESSEE......

CITY           SKY/WX    TMP DP  RH WIND       PRES   REMARKS
MEMPHIS        MOSUNNY   89  66  46 E6        29.96R HX  91
NASHVILLE      PTCLDY    85  67  54 NE7       30.01S

......ARKANSAS.......

CITY           SKY/WX    TMP DP  RH WIND       PRES   REMARKS
FAYETTEVILLE   SUNNY     87  65  47 SE5       29.96S
FT SMITH       SUNNY     92  64  39 E9        29.90S HX  93
LITTLE ROCK    MOSUNNY   89  67  47 E8        29.93S HX  92

......OKLAHOMA.......

CITY           SKY/WX    TMP DP  RH WIND       PRES   REMARKS
TULSA          MOSUNNY   88  65  46 SE8       29.90S HX  90
PONCA CITY     SUNNY     89  62  40 S10       29.89F
MCALESTER      PTSUNNY   91  66  43 VRB5      29.91S HX  93
OKLAHOMA CITY  MOSUNNY   87  61  41 S15G23    29.89F

......IOWA............

CITY           SKY/WX    TMP DP  RH WIND       PRES   REMARKS
DES MOINES     MOSUNNY   88  63  43 S12       29.93S
QUAD CITIES    CLEAR     87  67  51 SE5       29.99S HX  90

......ILLINOIS........

CITY           SKY/WX    TMP DP  RH WIND       PRES   REMARKS
QUINCY         SUNNY     89  60  37 SE8       29.98S
CHICAGO        PTCLDY    89  64  43 E12       30.03S HX  90



USA.gov is the U.S. government's official web portal to all federal, state and local government web resources and services.